VK2EHQ Weather Reports


time (UTC)temp
C
wind
direction
speed
KPH
gust
KPH
rain 1hr
cm
rain 24hr
cm
rain mn
cm
humidity
%
barometer
mb
20260504173414 16 281 8.0 9.7 0.00 0.00 0.00 80 1016.5
20260504172414 16 287 4.8 9.7 0.00 0.00 0.00 80 1016.4
20260504171414 16 282 8.0 8.0 0.00 0.00 0.00 80 1016.5
20260504170414 16 284 4.8 8.0 0.00 0.00 0.00 81 1016.3
20260504160414 16 312 4.8 4.8 0.00 0.00 0.00 82 1016.8
20260504150413 17 284 4.8 8.0 0.00 0.00 0.00 81 1016.7
20260504140413 17 272 11.3 14.5 0.00 0.00 0.00 80 1017.0
20260504110412 18 11 4.8 8.0 0.00 0.00 0.00 77 1016.6
20260504100414 18 12 12.9 19.3 0.00 0.00 0.00 73 1016.4
20260504081410 20 30 9.7 19.3 0.00 0.00 0.00 69 1015.9
20260504080411 20 16 12.9 19.3 0.00 0.00 0.00 70 1015.8
20260504070410 20 28 9.7 11.3 0.00 0.00 0.00 71 1015.6
20260504045409 20 9 8.0 8.0 0.00 0.00 0.00 70 1015.3
20260504044409 20 16 11.3 14.5 0.00 0.00 0.00 70 1015.4
20260504043339 20 17 9.7 16.1 0.00 0.00 0.00 70 1015.5
20260504042339 20 15 11.3 12.9 0.00 0.00 0.00 71 1015.6
20260504041339 20 18 4.8 11.3 0.00 0.00 0.00 71 1015.6
20260504040339 20 7 4.8 11.3 0.00 0.00 0.00 72 1015.6
20260504035339 20 12 1.6 8.0 0.00 0.00 0.00 73 1015.7
20260504034339 20 43 4.8 8.0 0.00 0.00 0.00 73 1015.7
20260504033339 20 14 4.8 8.0 0.00 0.00 0.00 73 1016.0
20260504032341 20 12 3.2 4.8 0.00 0.00 0.00 74 1016.1
20260504031339 20 29 4.8 4.8 0.00 0.00 0.00 75 1016.0
20260504030339 20 23 3.2 3.2 0.00 0.00 0.00 74 1016.4
20260504025339 20 318 4.8 8.0 0.00 0.00 0.00 73 1016.8
20260504024339 20 351 3.2 4.8 0.00 0.00 0.00 73 1016.7
20260504023339 20 349 3.2 4.8 0.00 0.00 0.00 73 1016.9
20260504022339 20 329 4.8 4.8 0.00 0.00 0.00 73 1017.1
20260504021338 20 283 1.6 3.2 0.00 0.00 0.00 72 1017.4
20260504020338 20 290 3.2 3.2 0.00 0.00 0.00 71 1017.5
20260504015338 20 318 1.6 4.8 0.00 0.00 0.00 68 1017.7
20260504014338 21 318 4.8 4.8 0.00 0.00 0.00 67 1017.8
20260504013338 21 275 4.8 8.0 0.00 0.00 0.00 65 1018.0
20260504012338 21 351 3.2 8.0 0.00 0.00 0.00 62 1018.1
20260504011338 21 348 3.2 8.0 0.00 0.00 0.00 61 1018.1
20260504010338 21 3 9.7 9.7 0.00 0.00 0.00 61 1018.1
20260504005338 21 13 4.8 9.7 0.00 0.00 0.00 60 1018.0
20260504004338 22 22 4.8 11.3 0.00 0.00 0.00 62 1017.9
20260504003338 22 43 9.7 11.3 0.00 0.00 0.00 62 1017.9
20260504002338 22 18 8.0 9.7 0.00 0.00 0.00 62 1018.1
20260504001338 21 16 3.2 4.8 0.00 0.00 0.00 62 1017.9
20260504000337 21 29 4.8 8.0 0.00 0.00 0.00 62 1017.8
20260503235338 21 16 4.8 4.8 0.00 0.00 0.00 64 1017.9
20260503234338 21 31 4.8 4.8 0.00 0.00 0.00 65 1018.0
20260503233337 21 28 3.2 4.8 0.00 0.00 0.00 64 1018.2
20260503232338 21 37 1.6 3.2 0.00 0.00 0.00 65 1018.2
20260503231337 20 327 3.2 4.8 0.00 0.00 0.00 65 1018.1
20260503230337 20 14 1.6 4.8 0.00 0.00 0.00 65 1018.1
20260503225337 20 350 4.8 8.0 0.00 0.00 0.00 64 1017.9
20260503224337 20 354 4.8 9.7 0.00 0.00 0.00 65 1017.8
20260503223337 20 341 1.6 4.8 0.00 0.00 0.00 65 1017.8
20260503222337 20 12 4.8 4.8 0.00 0.00 0.00 66 1017.8
20260503221337 20 22 4.8 8.0 0.00 0.00 0.00 66 1017.7
20260503220337 20 3 4.8 8.0 0.00 0.00 0.00 66 1017.7
20260503215337 20 9 4.8 8.0 0.00 0.00 0.00 66 1017.7
20260503214337 20 24 4.8 4.8 0.00 0.00 0.00 66 1017.5
20260503213336 20 24 4.8 4.8 0.00 0.00 0.00 66 1017.3
20260503212337 20 357 4.8 8.0 0.00 0.00 0.00 67 1017.5
20260503211336 19 357 3.2 4.8 0.00 0.00 0.00 68 1017.5
20260503210336 19 12 8.0 9.7 0.00 0.00 0.00 68 1017.3
20260503205336 18 7 3.2 9.7 0.00 0.00 0.00 69 1017.3
20260503204336 18 352 3.2 4.8 0.00 0.00 0.00 69 1017.1
20260503203336 18 359 4.8 9.7 0.00 0.00 0.00 68 1017.1
20260503202337 18 7 4.8 4.8 0.00 0.00 0.00 68 1017.0
20260503201336 18 11 3.2 4.8 0.00 0.00 0.00 69 1016.8
20260503200336 18 7 3.2 4.8 0.00 0.00 0.00 69 1016.6
20260503195336 18 356 3.2 4.8 0.00 0.00 0.00 69 1016.5
20260503194336 18 352 3.2 4.8 0.00 0.00 0.00 70 1016.5
20260503193336 18 356 3.2 9.7 0.00 0.00 0.00 71 1016.4
20260503192336 18 337 3.2 4.8 0.00 0.00 0.00 72 1016.4
20260503191335 18 14 3.2 8.0 0.00 0.00 0.00 74 1016.4
20260503190335 17 356 3.2 9.7 0.00 0.00 0.00 76 1016.3
20260503185337 17 359 1.6 4.8 0.00 0.00 0.00 78 1016.5
20260503184335 17 348 4.8 4.8 0.00 0.00 0.00 81 1016.5
20260503183335 16 31 4.8 4.8 0.00 0.00 0.00 82 1016.5
20260503182335 16 5 4.8 9.7 0.00 0.00 0.00 82 1016.4
20260503181335 16 4 1.6 3.2 0.00 0.00 0.00 82 1016.5
20260503180335 16 4 0.0 0.0 0.00 0.00 0.00 82 1016.4
20260503175335 16 4 0.0 3.2 0.00 0.00 0.00 82 1016.5
20260503174335 16 4 4.8 8.0 0.00 0.00 0.00 82 1016.5